[Date Prev][Date Next][Thread Prev][Thread Next] - [Date Index][Thread Index][Author Index]
2 Line ISS Keps 10-10
- Subject: [sarex] 2 Line ISS Keps 10-10
- From: "Dave Larsen PhD" <doc@xxxxxxxxxxx>
- Date: Fri, 10 Oct 2003 02:38:57 -0700
ISS
1 25544U 98067A 03283.20438446 .00021324 00000-0 24212-3 0 6169
2 25544 51.6310 160.6173 0006333 25.8664 117.2562 15.62270967278970
----
Via the sarex mailing list at AMSAT.ORG courtesy of AMSAT-NA.
To unsubscribe, send "unsubscribe sarex" to Majordomo@amsat.org
AMSAT Home